Regional Weather Roundup
Issued by NWS

Home | Current Version | Previous Version | Graphics & Text | Print | Product List | Glossary On
Versions: 1 2 3 4 5 6 7 8 9 10 11 12 13 14 15 16 17 18 19 20 21 22 23 24 25 26 27 28 29 30 31 32 33 34 35 36 37 38 39 40 41 42 43 44 45 46 47 48 49 50
000
ASUS43 KMKX 262159
RWRWI

WISCONSIN REGIONAL WEATHER ROUNDUP
NATIONAL WEATHER SERVICE MILWAUKEE/SULLIVAN WI
400 PM CST THU FEB 26 2015

NOTE: "FAIR" INDICATES FEW OR NO CLOUDS BELOW 12,000 FEET WITH NO
SIGNIFICANT WEATHER AND/OR OBSTRUCTIONS TO VISIBILITY.

WIZ001-002-006>008-014>016-023>028-262300-
NORTHWEST WISCONSIN

CITY           SKY/WX    TMP DP  RH WIND       PRES   REMARKS
SUPERIOR ARPT  SUNNY     10  -8  45 NW10      30.41S WCI  -4
ASHLAND        SUNNY      9  -8  46 W9        30.38S WCI  -4
HAYWARD        SUNNY      9 -11  40 VRB6      30.34S WCI  -1
SIREN          SUNNY      9  -9  44 W10       30.40S WCI  -5
CUMBERLAND     SUNNY      9  -9  43 NW10      30.35S WCI  -6
RICE LAKE      SUNNY      9 -10  42 W9        30.38S WCI  -4
CHETEK         SUNNY      9  -9  44 W7        30.37S WCI  -2
LADYSMITH      SUNNY     10  -7  47 NW8       30.34S WCI  -3
EAU CLAIRE     NOT AVBL
MENOMONIE      SUNNY     11  -8  42 NW12      30.39S WCI  -4
NEW RICHMOND   SUNNY      9  -7  49 N12       30.41S WCI  -6
OSCEOLA        SUNNY      9  -8  46 NW9G16    30.45S WCI  -4
$$

WIZ003>005-009-010-017-018-262300-
NORTH CENTRAL WISCONSIN

CITY           SKY/WX    TMP DP  RH WIND       PRES   REMARKS
MANITOWISH WTR SUNNY      5  -8  53 NW10      30.25S WCI -10
ARBOR VITAE    SUNNY      9  -7  49 N6        30.24S WCI  -1
WOODRUFF       SUNNY      9  -7  49 N6        30.24S WCI  -1
RHINELANDER    SUNNY      8  -9  45 NW9       30.24S WCI  -5
EAGLE RIVER    SUNNY      7 -10  44 N7        30.22S WCI  -4
LAND O LAKES   SUNNY      7  -8  48 NW6       30.23F WCI  -3
PHILLIPS       MOSUNNY    8  -8  47 N6        30.26S WCI  -2
TOMAHAWK       MOSUNNY   10  -8  44 NW6       30.26S WCI   0
MEDFORD        MOSUNNY    8  -7  49 NW9G17    30.27S WCI  -5
MERRILL        MOSUNNY   11  -8  42 NW10      30.26S WCI  -3
$$

WIZ029-030-035-036-043>047-262300-
CENTRAL WISCONSIN

CITY           SKY/WX    TMP DP  RH WIND       PRES   REMARKS
WAUSAU         SUNNY     10  -8  44 NW12      30.27R WCI  -5
MOSINEE        MOSUNNY    9  -6  52 W12       30.28S WCI  -6
MARSHFIELD     MOSUNNY    9  -5  53 NW14      30.30S WCI  -7
STEVENS POINT  SUNNY      9  -8  44 NW9       30.30R WCI  -4
WAUPACA        SUNNY     16  -7  35 NW8       30.31S WCI   5
WAUTOMA        NOT AVBL
WISC RAPIDS    SUNNY     10  -8  44 NW13      30.33R WCI  -5
CAMP DOUGLAS   NOT AVBL
$$

WIZ011>013-019>022-031-037>040-048>050-262300-
NORTHEAST WISCONSIN

CITY           SKY/WX    TMP DP  RH WIND       PRES   REMARKS
ANTIGO         SUNNY      9  -7  48 N10       30.24R WCI  -6
SHAWANO        MOSUNNY   16  -8  34 NW9       30.29S WCI   4
OCONTO         MOSUNNY   11  -2  55 SE7       30.31S WCI   0
STURGEON BAY   SUNNY     10  -6  48 W3        30.32S
GREEN BAY      SUNNY     13  -3  49 NW5       30.31S WCI   5
MANITOWOC      NOT AVBL
APPLETON       PTSUNNY   12  -8  40 N7        30.30S WCI   2
CLINTONVILLE   SUNNY     14  -8  37 NW10      30.29F WCI   1
OSHKOSH        PTSUNNY   13  -4  46 VRB6      30.31S WCI   4
$$

WIZ032>034-041-042-053>061-262300-
SOUTHWEST WISCONSIN

CITY           SKY/WX    TMP DP  RH WIND       PRES   REMARKS
LA CROSSE      PTSUNNY   12  -4  48 NW12      30.40R WCI  -2
SPARTA         PTSUNNY   12  -4  47 NW12G18   30.37R WCI  -2
VIROQUA        PTSUNNY   10  -4  53 NW14      30.31S WCI  -7
BOSCOBEL       PTSUNNY   14  -5  42 NW10      30.37R WCI   1
PRAIRIE DU CHI PTSUNNY   12  -4  46 N10G16    30.38R WCI  -1
PLATTEVILLE    SUNNY     12  -4  48 NW9       30.32R WCI   0
$$

WIZ056-057-062-063-064-067-068-262300-
SOUTH CENTRAL WISCONSIN

CITY           SKY/WX    TMP DP  RH WIND       PRES   REMARKS
REEDSBURG      PTSUNNY   11  -5  47 NW9       30.32S WCI  -1
BARABOO/DELLS  MOSUNNY   13  -6  42 N6        30.30S WCI   4
LONE ROCK      NOT AVBL
MINERAL POINT  SUNNY     14  -6  41 NW9       30.29S WCI   2
MADISON        MOSUNNY   13  -6  42 N12       30.31R WCI  -1
MIDDLETON      SUNNY     13  -6  42 N7        30.32R WCI   3
WATERTOWN      SUNNY     12  -3  50 N10       30.31R WCI  -2
MONROE         SUNNY     12  -4  48 N9        30.29R WCI   0
JANESVILLE     SUNNY     14  -2  48 N15       30.31R WCI  -1
$$

WIZ051-052-058>065-066-070>072-262300-
SOUTHEAST WISCONSIN

CITY           SKY/WX    TMP DP  RH WIND       PRES   REMARKS
MILWAUKEE      MOSUNNY   14  -6  40 N13       30.30R WCI   0
WAUKESHA       SUNNY     10  -6  48 NW13      30.30R WCI  -5
MILWAUKEE/TIMM SUNNY     12  -8  40 N10       30.30R WCI  -1
RACINE         MOSUNNY   14  -4  44 N12       30.31R WCI   0
BURLINGTON     SUNNY     12  -7  41 N10       30.29S WCI  -2
KENOSHA        SUNNY     14  -3  47 NW8       30.29R WCI   3
FOND DU LAC    PTSUNNY    9  -3  58 NE9       30.31F WCI  -4
SHEBOYGAN      SUNNY     11  -5  48 N9        30.31R WCI  -2
WEST BEND      MOSUNNY   12  -4  48 NW12      30.29R WCI  -2
JUNEAU         MOSUNNY   11  -5  49 N12       30.31S WCI  -3
$$

LSZ147-162-262300-
LAKE SUPERIOR

STATION/POSITION TIME  TEMP    WIND        PRES    WAVE
                       AIR SEA DIR/SP/G            HT/PER
                 (UTC) (F)     (DEG/KT/KT) (MB)    (FT/S)
DEVILS ISLAND    2100    7     240/ 12/ 15 1030.2F
PORT WING        2140    9     230/ 11/ 16 1029.1F
SAXON HARBOR     2100    8     330/  3/  7 1028.8F
$$

LMZ867-665-643>646-262300-
LAKE MICHIGAN

STATION/POSITION TIME  TEMP    WIND        PRES    WAVE
                       AIR SEA DIR/SP/G            HT/PER
                 (UTC) (F)     (DEG/KT/KT) (MB)    (FT/S)
NORTHPORT PIER   2122   10      10/  3/  9 1026.4S
KEWAUNEE LAKESHO 2100   10     350/  5/ 12 1025.7R
SHEBOYGAN LAKESH 2100   10     350/ 11/ 13 1028.3R
PORT WASHINGTON  2100   13     350/  9/ 15 1027.1R
MILWAUKEE LAKESH 2100   14      10/ 13/ 18   N/A
KENOSHA   LAKESH 2100   15     330/ 11/ 14 1025.4R
$$

TC  - TEMPERATURE IN CELSIUS
VSB - VISIBILITY IN STATUTE MILES
WCI - WIND CHILL INDEX
HX  - HEAT INDEX



USA.gov is the U.S. government's official web portal to all federal, state and local government web resources and services.